www.pogodaiklimat.ru

Погода и климат >> Архив погоды >> Россия >> Якутия >> Батагай-Алыта


ПОГОДА в Батагай-Алыте

  • Прогноз погоды в Батагай-Алыте
  • Монитор погоды в Батагай-Алыте
  • Климат города

АРХИВ ПОГОДЫ в Батагай-Алыте

Время (UTC), дата Ветер
(напр.,м/с)
 
Видим.   Явления Облачность Т
(С)
Тd
(С)
f
(%)
Тe
(С)
Тes
(С)
Комфортность P
(гПа)
Po
(гПа)
Тmin
(С)
Tmax
(С)
R
(мм)
R24
(мм)
S
(см)
09 10.12 штиль 0 20 км ясно -36.8 -41.1 64 -37 -37 опасность
обморожения
1029.0 958.8 -34.5
12 10.12 СЗ 1 н/о н/о -36.9 -41.3 63 -42 -42 опасность
обморожения
1028.4 958.2
15 10.12 СЗ 2 н/о н/о -37.3 -41.7 63 -46 -46 опасность
обморожения
1027.9 957.7
18 10.12 штиль 0 н/о н/о -36.9 -41.3 63 -37 -37 опасность
обморожения
1027.5 957.4
21 10.12 СЗ 1 н/о н/о -38.3 -42.8 62 -43 -43 опасность
обморожения
1027.1 956.6 -38.5
00 11.12 СЗ 1 20 км ясно -36.8 -41.0 65 -42 -42 опасность
обморожения
1026.0 956.0 -38.7 11
03 11.12 СЗ 1 50 км ясно -38.3 -42.7 63 -43 -43 опасность
обморожения
1025.5 955.1
06 11.12 СЗ 2 50 км ясно -38.4 -43.0 62 -47 -47 опасность
обморожения
1024.7 954.3
09 11.12 СЗ 1 20 км ясно -38.7 -43.3 62 -44 -44 опасность
обморожения
1024.2 953.8 -36.7
12 11.12 СЗ 1 н/о н/о -38.5 -43.1 62 -44 -44 опасность
обморожения
1023.2 952.9
15 11.12 СЗ 1 н/о н/о -39.6 -44.3 61 -45 -45 опасность
обморожения
1022.7 952.1
18 11.12 С 1 н/о н/о -39.3 -43.9 61 -44 -44 опасность
обморожения
1021.6 951.2
21 11.12 штиль 0 н/о н/о -36.7 -41.0 64 -37 -37 опасность
обморожения
1019.6 950.1 -39.9
00 12.12 штиль 0 20 км 4/0
[Ac trans]
-32.8 -36.7 68 -33 -33 опасность
обморожения
1017.9 949.6 -39.9 11
03 12.12 штиль 0 50 км 6/6 1000 м
[Sc]
-32.6 -36.5 68 -33 -33 опасность
обморожения
1016.8 948.6
06 12.12 СЗ 1 50 км 8/8 1000 м
[Sc]
-33.8 -37.7 68 -38 -38 опасность
обморожения
1016.8 948.3
09 12.12 С 1 20 км 8/8 1000 м
[Sc]
-33.1 -37.0 68 -38 -38 опасность
обморожения
1016.6 948.3 -31.6
12 12.12 З 2 н/о н/о -35.3 -39.4 66 -44 -44 опасность
обморожения
1018.3 949.2
15 12.12 СЗ 1 н/о н/о -28.9 -32.4 72 -33 -33 опасность
обморожения
1016.7 949.6
18 12.12 СЗ 1 н/о н/о -24.9 -27.8 77 -28 -28 1016.0 949.9
21 12.12 штиль 0 н/о н/о -23.4 -26.3 77 -23 -23 1015.9 950.2 -35.3
00 13.12 СВ 1 10 км слабый снег 10/8 1000 м
[Sc Cs]
-25.0 -28.0 76 -29 -29 1016.8 950.6 -35.3 0.0 11
03 13.12 штиль 0 50 км {снег} 8/3 1500 м
[Sc Ci fib]
-32.8 -36.7 68 -33 -33 опасность
обморожения
1018.5 950.1
06 13.12 СЗ 3 50 км {снег} 4/3 1500 м
[Sc Ci fib]
-35.9 -40.2 64 -47 -47 опасность
обморожения
1018.6 949.4
09 13.12 СЗ 2 20 км ясно -36.6 -40.8 65 -45 -45 опасность
обморожения
1018.2 948.8 -23.4 0.2
12 13.12 СЗ 2 н/о н/о -38.6 -42.9 64 -48 -48 опасность
обморожения
1017.7 947.8
15 13.12 СЗ 2 н/о н/о -39.3 -43.8 62 -48 -48 опасность
обморожения
1015.8 945.8
18 13.12 СЗ 1 н/о н/о -39.3 -43.8 62 -44 -44 опасность
обморожения
1013.7 943.8
21 13.12 штиль 0 н/о н/о -38.7 -43.1 63 -39 -39 опасность
обморожения
1011.7 942.2 -40.2
00 14.12 штиль 0 20 км 6/6 1000 м
[Sc]
-34.7 -38.8 66 -35 -35 опасность
обморожения
1008.8 940.6 -40.2 11
03 14.12 СЗ 1 20 км 6/6 1000 м
[Sc]
-34.6 -38.8 65 -39 -39 опасность
обморожения
1006.8 938.8
06 14.12 штиль 0 20 км 6/6 1000 м
[Sc]
-33.1 -37.0 68 -33 -33 опасность
обморожения
1005.1 937.6
09 14.12 штиль 0 20 км 8/8 1000 м
[Sc]
-30.4 -33.9 71 -30 -30 1004.0 937.3 -30.4
12 14.12 штиль 0 н/о н/о -30.6 -34.1 71 -31 -31 опасность
обморожения
1004.5 937.7
15 14.12 штиль 0 н/о н/о -30.9 -34.5 70 -31 -31 опасность
обморожения
1004.3 937.4
18 14.12 штиль 0 н/о н/о -29.5 -32.9 72 -30 -30 1003.9 937.4
21 14.12 штиль 0 н/о н/о -28.7 -32.1 72 -29 -29 1003.4 937.1 -30.9
00 15.12 штиль 0 10 км слабый снег 10/10 1000 м
[Sc]
-27.9 -31.2 73 -28 -28 1003.2 937.2 -30.9 0.0 11
03 15.12 штиль 0 50 км {снег} 8/4 1000 м
[Sc Ci fib]
-29.1 -32.6 72 -29 -29 1003.5 937.2
06 15.12 С 1 20 км {снег} 3/3 1000 м
[Sc]
-35.6 -39.7 66 -40 -40 опасность
обморожения
1005.9 937.6
09 15.12 СЗ 2 20 км ясно -36.8 -41.0 65 -45 -45 опасность
обморожения
1007.0 938.3 -27.7 0.2
12 15.12 З 1 н/о н/о -35.4 -39.4 67 -40 -40 опасность
обморожения
1006.8 938.5
15 15.12 СЗ 1 н/о н/о -31.0 -34.6 70 -35 -35 опасность
обморожения
1005.0 938.0
18 15.12 Ю 1 н/о н/о -30.2 -33.8 71 -34 -34 опасность
обморожения
1004.3 937.6
21 15.12 СЗ 1 н/о н/о -31.4 -35.0 70 -36 -36 опасность
обморожения
1004.1 937.1 -37.0
00 16.12 З 1 20 км 6/6 1500 м
[]
-35.3 -39.4 66 -40 -40 опасность
обморожения
1005.5 937.3 -37.0 11
03 16.12 СЗ 2 50 км 6/3 1500 м
[Sc Ac trans Ci fib]
-36.6 -40.9 64 -45 -45 опасность
обморожения
1005.6 937.1
06 16.12 штиль 0 50 км 6/3 1500 м
[Sc Ac trans Ci fib]
-36.8 -41.0 65 -37 -37 опасность
обморожения
1006.0 937.3
09 16.12 СЗ 2 20 км 8/3 1500 м
[Sc Ci fib]
-36.0 -40.2 65 -44 -44 опасность
обморожения
1006.0 937.7 -30.7
12 16.12 СЗ 1 н/о н/о -34.1 -38.0 68 -39 -39 опасность
обморожения
1005.9 938.1
15 16.12 З 1 н/о н/о -35.9 -40.1 65 -41 -41 опасность
обморожения
1006.1 937.7
18 16.12 СЗ 1 н/о н/о -34.6 -38.5 67 -39 -39 опасность
обморожения
1006.2 938.2
21 16.12 СЗ 1 н/о н/о -34.8 -38.8 67 -39 -39 опасность
обморожения
1006.5 938.4 -36.9
00 17.12 З 1 10 км слабый снег 10/6 1000 м
[Sc As op]
-33.0 -36.9 68 -37 -37 опасность
обморожения
1006.0 938.4 -36.9 0.4 11
03 17.12 штиль 0 4000 м слабый снег 10/10 1000 м
[Sc]
-33.6 -37.6 67 -34 -34 опасность
обморожения
1006.7 938.9
06 17.12 штиль 0 4000 м слабый снег 10/10 1000 м
[Sc]
-32.6 -36.5 68 -33 -33 опасность
обморожения
1006.5 939.0

 

Местоположение метеостанции Батагай-Алыта (Якутия, Россия): широта 67.78 долгота 130.40 высота над уровнем моря 491 м.

В архиве по умолчанию представлена погода в Батагай-Алыте за последнюю неделю. Архивные данные за месяц целиком и за предыдущие месяцы, начиная с января 2011 года, Вы можете получить, выбрав интересующий диапазон дат из раскрывающегося списка и нажав кнопку "Ввод!".


*Определитесь, кто Вы:
робот инопланетянин человек

Внимание! Время в таблицах - всемирное. Для получения местного времени необходимо прибавить поправку, которая в Батагай-Алыте равна 9 ч.

Смотрите также архив погоды в соседних городах и на ближайших метеорологических станциях:

Погода в Екюччю (Якутия, Россия) (124 км)
Погода в Верхоянске (Якутия, Россия) (129 км)
Погода в Батагае (Якутия, Россия) (178 км)
Погода в Себян-Кюеле (Якутия, Россия) (276 км)
Погода в Джарджане (Якутия, Россия) (284 км)
Погода в Усть-Чарках (Якутия, Россия) (288 км)
Погода в Усть-Куйге (Якутия, Россия) (323 км)
Погода в Жиганске (Якутия, Россия) (324 км)
Погода в Кюсюре (Якутия, Россия) (343 км)
Погода в Иэме (Якутия, Россия) (365 км)

Пояснения к столбцам:

Ветер - указаны скорость ветра в м/с - средняя за 10 мин, порывы в срок и между сроками (в фигурных скобках) и направление, откуда дует ветер: С - северный, СВ - северо-восточный, В - восточный, ЮВ - юго-восточный, Ю - южный, ЮЗ - юго-западный, З - западный, СЗ - северо-западный.
Видимость - горизонтальная дальность видимости в метрах или километрах. При видимости от 1 до 10 км при отсутствии осадков обычно наблюдается дымка, при ухудшении видимости до 1 км и менее - туман. В сухую погоду видимость может ухудшаться дымом, пылью или мглою.
Явления - указаны атмосферные явления, наблюдавшиеся в срок или в последний час перед сроком; фигурными скобками обозначены явления, наблюдавшиеся между сроками (за 1-3 часа до срока); квадратными скобками обозначены град или гололедные отложения с указанием их диаметра в мм.
Облачность - указаны через наклонную черту общая и нижняя облачность в баллах и высота нижней границы облаков в метрах; квадратными скобками обозначены формы облаков: Ci - перистые, Cs - перисто-слоистые, Cc - перисто-кучевые, Ac - высококучевые, As - высокослоистые, Sc - слоисто-кучевые, Ns - слоисто-дождевые, Cu - кучевые, Cb - кучево-дождевые. Подробнее классификацию облаков см. в Атласе облаков (PDF).
T - Температура воздуха - температура, измеренная на высоте 2 м над землей.
Td - Температура точки росы - температура, при понижении до которой содержащийся в воздухе водяной пар достигнет насыщения.
f - Относительная влажность воздуха - влажноcть воздуха, измеренная на высоте 2 м над землей.
Te - Эффективная температура - температура, которую ощущает одетый по сезону человек в тени. Характеристика душности погоды. При расчете учитывается влияние влажности воздуха и скорости ветра на теплоощущения человека.
Tes - Эффективная температура на солнце - температура, которую ощущает человек, с поправкой на солнечный нагрев. Характеристика знойности погоды. Зависит от высоты солнца над горизонтом, облачности и скорости ветра. Ночью, в пасмурную погоду, а также при ветре 12 м/с и более поправка равна нулю.
P - Атмосферное давление - приведенное к уровню моря атмосферное давление.
Po - Атмосферное давление - измеренное на уровне метеостанции атмосферное давление.
Tmin - Минимальная температура - минимум температуры воздуха на высоте 2 м над землей.
Tmax - Максимальная температура - максимум температуры воздуха на высоте 2 м над землей.
R - Количество осадков - Количество выпавших осадков за период времени, мм. При наведении курсора мыши на число - период времени, за который выпало указанное количество осадков.
R24 - Количество осадков - Количество выпавших осадков за 24 часа, мм.
S - Снежный покров - Высота снежного покрова, см. При наведении курсора мыши на число - состояние снежного покрова и степень покрытия местности в баллах.